Weather Roundup
Issued by NWS

Home | Current Version | Previous Version | Graphics & Text | Print | Product List | Glossary Off
Versions: 1 2 3 4 5 6 7 8 9 10 11 12 13 14 15 16 17 18 19 20 21 22 23 24 25 26 27 28 29 30 31 32 33 34 35 36 37 38 39 40 41 42 43 44 45 46 47 48 49 50

579
NZUS93 KARX 240810
HRRWXR

CURRENT HOURLY OBSERVATIONS ACROSS
MUCH OF THE UPPER MISSISSIPPI VALLEY
NATIONAL WEATHER SERVICE LA CROSSE WI
200 AM CST FRI FEB 24 2017


...SOUTHEAST MINNESOTA...


CITY           SKY/WX    TMP DP  RH WIND       PRES   REMARKS
ROCHESTER      FOG       29  28  96 N24G31    29.69R VSB 3/4 WCI  15
ROCHESTER/MAYO CLOUDY    29  29 100 N14G24    29.73S VSB 3/4 WCI  18
WINONA         LGT SNOW  34  32  93 NE10      29.73F WCI  26
AUSTIN           N/A     28  27  93 N16G24    29.68R WCI  17
ALBERT LEA     SNOW      28  27  93 N23G35    29.70R VSB 1/2 WCI  14
DODGE CENTER   LGT SNOW  27  27 100 N23       29.73R WCI  12
PRESTON        LGT SNOW  30  29  94 NE20G29   29.66S VSB 1   WCI  18
OWATONNA         N/A     28  25  86 N16G23    29.77R WCI  17
FARIBAULT      LGT SNOW  27  27 100 N15G22    29.78F WCI  15
$$

...ELSEWHERE IN MINNESOTA...


CITY           SKY/WX    TMP DP  RH WIND       PRES   REMARKS
MINNEAPOLIS    CLOUDY    28  19  69 NE15G26   29.84F WCI  16
INTNL FALLS    CLOUDY    13   3  64 N7        30.06F WCI   3
DULUTH         CLOUDY    19  14  81 N8        29.95R WCI   9
RED WING       LGT SNOW  28  27  93 NE9       29.78F VSB 1   WCI  20
REDWOOD FALLS  CLOUDY    28  18  66 N13G24    29.87S WCI  17
MANKATO        LGT SNOW  27  24  89 N18       29.81S FOG     WCI  14
WORTHINGTON    LGT SNOW  25  22  88 N26G36    29.77F FOG     WCI   9
FAIRMONT       SNOW      27  25  92 N21       29.79R VSB 1/2 WCI  13
$$

...SOUTHWEST WISCONSIN...


CITY           SKY/WX    TMP DP  RH WIND       PRES   REMARKS
LA CROSSE      MIX PCPN  35  31  85 N8G18     29.72F WCI  29
PRAIRIE DU CHI MIX PCPN  33  32  96 NE8G18    29.64F WCI  26
BOSCOBEL       LGT RAIN  34  31  88 NE12G22   29.65F FOG     WCI  25
LONE ROCK      LGT SNOW  34  29  82 NE16G24   29.68F WCI  24
PLATTEVILLE    CLOUDY    33  33 100 NE21G26   29.61F WCI  22
FORT MC COY    LGT SNOW  32  31  96 NE14      29.74F WCI  22
CAMP DOUGLAS   LGT SNOW  31  30  95 NE12G20   29.74F FOG     WCI  22
MAUSTON-NEW LI LGT SNOW  32  31  95 NE10      29.73F WCI  23
VIROQUA        CLOUDY    32  32  99 NE16G25   29.66F WCI  21
WIS DELLS      LGT SNOW  31  30  96 NE15G21   29.71S WCI  20
$$

...ELSEWHERE IN WISCONSIN...


CITY           SKY/WX    TMP DP  RH WIND       PRES   REMARKS
MILWAUKEE      TSTM      36  33  89 NE24G30   29.67F FOG     WCI  24
MADISON        LGT RAIN  33  31  92 NE22      29.67S WCI  21
GREEN BAY      LGT SNOW  31  31 100 NE26      29.80R VSB 1   WCI  17
EAU CLAIRE     SNOW      29  27  92 NE12G22   29.79F VSB 1/2 WCI  19
BLACK RVR FLS  LGT SNOW  32  32 100 NE13G18   29.75F WCI  23
MEDFORD        SNOW      26  24  94 NE17      29.81S VSB 1/2 WCI  13
WAUSAU         SNOW      29  28  96 NE7       29.84R VSB 1/2 WCI  22
WIS RAPIDS     SNOW      31  30  96 NE10G18   29.80F VSB 1/2 WCI  22
MARSHFIELD     HVY SNOW  30  28  92 NE15      29.77F VSB 1/4 WCI  19
RICE LAKE      CLOUDY    29  21  73 N18G24    29.85F WCI  17
$$

...NORTHEAST IOWA...


CITY           SKY/WX    TMP DP  RH WIND       PRES   REMARKS
WATERLOO       TSTM      34  31  88 NE25G36   29.52F FOG     WCI  21
DUBUQUE        LGT RAIN  33  33 100 NE20G32   29.57F FOG     WCI  21
DECORAH        LGT RAIN  34  32  93 NE18G32   29.60F WCI  23
MASON CITY     SNOW      31  32 100 N24G33    29.68R VSB 1/2 WCI  17
CHARLES CITY   CLOUDY    34  34 100 NE21G43   29.60R FOG     WCI  22
OELWEIN        CLOUDY    34  34 100 NE31G41   29.52F FOG     WCI  20
$$

...ELSEWHERE IN IOWA...


CITY           SKY/WX    TMP DP  RH WIND       PRES   REMARKS
DES MOINES     DRIZZLE   37  34  89 NE22      29.51F WCI  26
IOWA CITY      CLOUDY    38  35  89 NE17G26   29.50F WCI  28
FORT DODGE     CLOUDY    32  28  86 N17G29    29.69S VSB 1/2 WCI  21
MARSHALLTOWN   TSTM      34  34 100 NW15G22   29.64R FOG     WCI  24
CEDAR RAPIDS   CLOUDY    35  35 100 NE21G30   29.49F FOG     WCI  24
$$

...NORTHERN ILLINOIS...


CITY           SKY/WX    TMP DP  RH WIND       PRES   REMARKS
CHICAGO-OHARE  LGT RAIN  40  37  89 NE15G22   29.59F WCI  32
CHICAGO-MIDWAY CLOUDY    41  38  89 NE9       29.59F
MOLINE         CLOUDY    41  36  82 E16       29.49F
ROCKFORD       TSTM      38  34  85 NE18G25   29.60S WCI  28
PEORIA         CLOUDY    47  46  97 E9        29.46F
$$

NOTE: "FAIR" INDICATES FEW OR NO CLOUDS BELOW 12,000 FEET WITH NO
SIGNIFICANT WEATHER AND/OR OBSTRUCTIONS TO VISIBILITY. WIND
SPEEDS ARE IN MILES-PER-HOUR.




USA.gov is the U.S. government's official web portal to all federal, state and local government web resources and services.